Regional Weather Roundup
Issued by NWS Newport/Morehead, NC

Home | Current Version | Previous Version | Text Only | Print | Product List | Glossary On
Versions: 1 2 3 4 5 6 7 8 9 10 11 12 13 14 15 16 17 18 19 20 21 22 23 24 25 26 27 28 29 30 31 32 33 34 35 36 37 38 39 40 41 42 43 44 45 46 47 48 49 50
000
ASUS42 KMHX 181813
RWRMHX
WEATHER ROUNDUP FOR EASTERN NORTH CAROLINA
NATIONAL WEATHER SERVICE NEWPORT/MOREHEAD CITY NC
200 PM EDT SUN AUG 18 2019

NOTE: "FAIR" INDICATES FEW OR NO CLOUDS BELOW 12,000 FEET
WITH NO SIGNIFICANT WEATHER AND/OR OBSTRUCTIONS TO VISIBILITY

NCZ015>017-031-032-045>047-102-103-181900-
NORTH COAST

CITY           SKY/WX    TMP DP  RH WIND       PRES   REMARKS
EDENTON        NOT AVBL
ELIZABETH CITY FAIR      86  74  67 CALM      30.02F
KITTY HAWK     MOCLDY    77  74  92 CALM      30.00F
MANTEO         PTSUNNY   77  73  87 N3        30.02F

$$

NCZ045>047-081-094-103-104-181900-
CENTRAL COAST

CITY           SKY/WX    TMP DP  RH WIND       PRES   REMARKS
FRISCO         CLOUDY    80  77  90 W7        30.02R FOG

$$

NCZ095-097-098-100-101-181900-
SOUTHERN COAST

CITY           SKY/WX    TMP DP  RH WIND       PRES   REMARKS
BEAUFORT       PTSUNNY   83  76  79 SW10      30.03F
CEDAR ISLAND   NOT AVBL
JACKSONVILLE   FAIR      85  74  69 NW8       30.03S
PINEY ISLAND   CLOUDY    82  75  79 W6        30.02F
WILMINGTON     PTSUNNY   87  75  67 NW7       30.05S


$$

NCZ011>013-027>030-043-044-078>080-089-090>093-098-181900-
COASTAL PLAIN

CITY           SKY/WX    TMP DP  RH WIND       PRES   REMARKS
AHOSKIE        NOT AVBL
CLINTON        NOT AVBL
ELIZABETHTOWN  FAIR      87  73  62 NW3       30.05S
GOLDSBORO      FAIR      88  74  63 CALM      30.03F
GREENVILLE     FAIR      82  75  78 CALM      30.06S
HAVELOCK       PTSUNNY   88  75  66 CALM      30.03F
KENANSVILLE    PTSUNNY   84  73  70 NW5       30.06S
KINSTON        PTSUNNY   82  73  74 N5        30.05
NEW BERN       PTSUNNY   84  76  76 N5        30.04S
RICHLANDS      FAIR      85  76  74 CALM      30.05S
ROCKY MOUNT    FAIR      88  71  57 CALM      30.04F
WASHINGTON     CLOUDY    84  76  77 NW7       30.04S
WHITEVILLE     NOT AVBL

$$

AMZ130-135-150-152-154-156-158-170-250-252-270-ANZ085-086-088-633-658-670-181900-
MARINE OBSERVATIONS

STATION/POSITION TIME  TEMP    WIND        PRES    WAVE   SWELL
                       AIR SEA DIR/SP/G            HT/PER HT/PER
                 (UTC) (F)     (DEG/KT/KT) (MB)    (FT/S) (FT/S)
64 E VA BEACH    1750   77 81  140/ 12/ 16 1017.1    4/ 7   3/ 7
DUCK             1730   76 75  230/  2/  3 1016.6
2 E DUCK         1800      78                N/A     2/ 8
10 NE DUCK       1800      81                N/A     3/ 7
OREGON INLET     1730   78 79  310/  5/  7 1016.3
13E OREGON INLT  1746      74                N/A     4/ 8   3/ 8
HATTERAS CG      1730   79 78  250/  7/  9 1016.7
DIAMOND BUOY     1800   82 84  240/ 17/ 21 1016.1
CAPE LOOKOUT     1800   81     250/ 10/ 13 1017.0
BEAUFORT LAB     1730   83 82  230/  6/  8 1017.9
30 SE NEW RVR IN 1708   81 84  310/  8/ 12 1017.4
30 SE NEW RVR IN 1800      84                N/A     5/ 7
27 SE WRIGHTSVLE NOT AVBL
5 SE WRIGHTSVLE  1708   80 83  320/  4/  6 1017.6
27 SE WRIGHTSVL  NOT AVBL
FRYING PAN BUOY  1800   81 83  260/ 12/ 16 1017.7
225 S CAPE HAT   1800   84     200/ 12/ 14 1020.4
41 SE CHARLESTON 1800   78 83  250/ 19/ 23 1019.0

$$



USA.gov is the U.S. government's official web portal to all federal, state and local government web resources and services.